Regional Weather Roundup
Issued by NWS

Home | Current Version | Previous Version | Text Only | Print | Product List | Glossary Off
Versions: 1 2 3 4 5 6 7 8 9 10 11 12 13 14 15 16 17 18 19 20 21 22 23 24 25 26 27 28 29 30 31 32 33 34 35 36 37 38 39 40 41 42 43 44 45 46 47 48 49 50

000
ASUS43 KDTX 010310
RWRMI
MICHIGAN HOURLY REGIONAL WEATHER ROUNDUP
NATIONAL WEATHER SERVICE DETROIT/PONTIAC MI
1100 PM EDT TUE JUN 30 2015

NOTE: "FAIR" INDICATES FEW OR NO CLOUDS BELOW 12,000 FEET WITH NO
SIGNIFICANT WEATHER AND/OR OBSTRUCTION TO VISIBILITY.

MIZ047>049-052>055-059>063-066>070-074>076-081>083-010400-
SOUTHEAST LOWER MICHIGAN

CITY           SKY/WX    TMP DP  RH WIND       PRES   REMARKS
ADRIAN         PTCLDY    66  60  81 NW6       29.81R
ALMA           CLOUDY    63  62  97 NW3       29.83R FOG
ANN ARBOR      CLOUDY    65  62  90 W8        29.80R
BAD AXE        CLOUDY    60  56  86 CALM      29.82R
CARO           CLOUDY    64  59  86 NE3       29.81R
DETROIT CITY   LGT RAIN  66  64  93 CALM      29.79R FOG
DETROIT        MOCLDY    66  63  90 W3        29.80R
FLINT          PTCLDY    65  62  90 NW7       29.81R FOG
GROSSE ILE     PTCLDY    64  63  94 CALM      29.78R
HILLSDALE      CLEAR     63  62  96 NW9       29.84R
HOWELL         MOCLDY    62  61  95 W5        29.80S

CITY           SKY/WX    TMP DP  RH WIND       PRES   REMARKS
JACKSON        MOCLDY    63  60  90 W7        29.82R
LAMBERTVILLE   PTCLDY    65  62  89 CALM      29.82R
LANSING        CLOUDY    64  62  93 NW3       29.82R FOG
LAPEER         CLOUDY    63  61  94 CALM      29.80R
MASON          MOCLDY    62  60  95 NW3       29.82R FOG
MONROE         CLOUDY    64  62  96 CALM      29.79R
MT. CLEMENS    LGT RAIN  64  63  94 N7        29.77R FOG
PONTIAC        MOCLDY    64  62  93 N6        29.79R
PORT HOPE        N/A     61  56  83 N3        29.80R
PORT HURON     LGT RAIN  61  59  94 CALM      29.79R
TRI CITIES     LGT RAIN  64  61  90 N5        29.82R
MIDLAND        CLOUDY    63  62  96 CALM      29.82R FOG
TROY           RAIN      66  65  95 NE5       29.81R
SAGINAW HB     CLOUDY    64  61  88 N5        29.81R
$$
MIZ043>046-050>051-056>058-064>065-071>073-077>080-010400-
SOUTHWEST LOWER MICHIGAN

CITY           SKY/WX    TMP DP  RH WIND       PRES   REMARKS
BATTLE CREEK   CLEAR     63  59  87 W8        29.85R
BENTON HARBOR  CLEAR     61  56  83 VRB5      29.88R
BIG RAPIDS     CLOUDY    58  54  84 NW6       29.87R
COLDWATER      CLEAR     61  58  91 W6        29.84R
FREMONT        CLOUDY    56  55  95 N9G16     29.87R
HOLLAND        CLEAR     62  54  74 N9        29.88R
GRAND RAPIDS   PTCLDY    61  57  87 NW8       29.85R
IONIA          MOCLDY    64  62  94 NW6       29.83R
KALAMAZOO      CLEAR     61  57  87 W8        29.86R
LUDINGTON      CLOUDY    56  52  86 N7G16     29.91R
MARSHALL       MOCLDY    62  59  89 W7        29.84R
MOUNT PLEASANT CLOUDY    62  61  96 CALM      29.83R
MUSKEGON       CLEAR     59  53  80 N15       29.88R
SOUTH HAVEN    CLEAR     61  56  82 N10G16    29.87R
$$
MIZ016>042-010400-
NORTHERN LOWER MICHIGAN

CITY           SKY/WX    TMP DP  RH WIND       PRES   REMARKS
ALPENA         LGT RAIN  62  59  90 W3        29.83R
BEAVER ISLAND  MOCLDY    50  47  90 NW7       29.89S
BELLAIRE       CLOUDY    55  50  82 W5        29.89R
CADILLAC       CLOUDY    52  50  95 NW7       29.88R
CHARLEVOIX     CLOUDY    54  50  86 NW8       29.91R
FRANKFORT      CLOUDY    55  46  72 N6        29.92R
GAYLORD        FOG       54  54 100 W6        29.86R VSB 3/4
GRAYLING       CLOUDY    57  56  97 NW6       29.86R FOG
HARBOR SPRINGS CLOUDY    55  53  92 CALM      29.86R
HOUGHTON LAKE  CLOUDY    57  55  93 NW10      29.85R
MANISTEE       CLOUDY    54  46  76 N8        29.92R
OSCODA         CLOUDY    63  59  88 N5        29.81S
PELLSTON       CLOUDY    57  55  93 NW9       29.86R
ROGERS CITY    HVY RAIN  62  61  97 SE6       29.85R
TRAVERSE CITY  CLOUDY    54  48  80 NW12G17   29.89R
$$
MIZ007>008-015-010400-
EASTERN UPPER MICHIGAN

CITY           SKY/WX    TMP DP  RH WIND       PRES   REMARKS
KINROSS        CLOUDY    52  52 100 NW8       29.86R
MACKINAC ISLAN CLOUDY    56  56 100 N9        29.85R
NEWBERRY       CLOUDY    46  45  98 NW5       29.89R
S. S. MARIE    CLOUDY    54  52  93 W5        29.86R
MUNISING         N/A     47  45  93 NW13      29.94R
$$
MIZ004>006-011>014-085-010400-
CENTRAL UPPER MICHIGAN

CITY           SKY/WX    TMP DP  RH WIND       PRES   REMARKS
MANISTIQUE     CLOUDY    47  44  90 N12       29.90R
ESCANABA       CLOUDY    50  43  76 N9        29.93R
MENOMINEE      PTCLDY    54  45  71 NW5       29.93S
SAWYER-GWINN   CLOUDY    46  43  89 N12       29.95S
$$
MIZ001>003-009>011-084-010400-
WESTERN UPPER MICHIGAN

CITY           SKY/WX    TMP DP  RH WIND       PRES   REMARKS
IRON MOUNTAIN  CLEAR     48  44  86 NW6       29.95R
HOUGHTON       CLEAR     43  40  89 NW6       29.99R
COPPER HARBOR    N/A     47  42  83 N10       29.99R
IRONWOOD       CLEAR     46  46 100 CALM      29.97S
$$

ABBREVIATIONS USED IN REMARKS
   TC - TEMPERATURE IN CELSIUS
  WCI - WIND CHILL INDEX
   HX - HEAT INDEX
  VSB - VISIBILITY



USA.gov is the U.S. government's official web portal to all federal, state and local government web resources and services.